datetime,flow
1935-05-02,0.0
1935-05-03,0.0
1935-05-04,0.0
1935-05-05,0.0
1935-05-06,0.0
1935-05-07,0.0
1935-05-08,0.0
1935-05-09,0.0
1935-05-10,0.0
1935-05-11,0.0
1935-05-12,0.0
1935-05-13,0.0
1935-05-14,0.0
1935-05-15,0.0
1935-05-16,0.0
1935-05-17,0.0
1935-05-18,0.0
1935-05-19,0.0
1935-05-20,0.0
1935-05-21,0.0
1935-05-22,0.0
1935-05-23,0.6000000000000001
1935-05-24,14.0
1935-05-25,23.0
1935-05-26,32.0
1935-05-27,55.0
1935-05-28,65.0
1935-05-29,54.0
1935-05-30,59.0
1935-05-31,57.0
1935-06-01,48.0
1935-06-02,49.0
1935-06-03,55.0
1935-06-04,75.0
1935-06-05,97.0
1935-06-06,120.0
1935-06-07,144.0
1935-06-08,173.0
1935-06-09,214.0
1935-06-10,257.0
1935-06-11,290.0
1935-06-12,301.0
1935-06-13,316.0
1935-06-14,334.0
1935-06-15,342.0
1935-06-16,304.0
1935-06-17,133.0
1935-06-18,167.0
1935-06-19,198.0
1935-06-20,248.0
1935-06-21,245.0
1935-06-22,220.0
1935-06-23,198.0
1935-06-24,187.0
1935-06-25,166.0
1935-06-26,151.0
1935-06-27,172.0
1935-06-28,149.0
1935-06-29,127.0
1935-06-30,136.0
1935-07-01,130.0
1935-07-02,122.0
1935-07-03,120.0
1935-07-04,115.0
1935-07-05,63.0
1935-07-06,129.0
1935-07-07,99.0
1935-07-08,98.0
1935-07-09,99.0
1935-07-10,93.0
1935-07-11,86.0
1935-07-12,84.0
1935-07-13,77.0
1935-07-14,72.0
1935-07-15,66.0
1935-07-16,59.0
1935-07-17,58.0
1935-07-18,55.0
1935-07-19,48.0
1935-07-20,45.0
1935-07-21,46.0
1935-07-22,41.0
1935-07-23,37.0
1935-07-24,35.0
1935-07-25,34.0
1935-07-26,32.0
1935-07-27,30.0
1935-07-28,28.0
1935-07-29,28.0
1935-07-30,30.0
1935-07-31,33.0
1935-08-01,34.0
1935-08-02,28.0
1935-08-03,25.0
1935-08-04,24.0
1935-08-05,21.0
1935-08-06,20.0
1935-08-07,21.0
1935-08-08,20.0
1935-08-09,21.0
1935-08-10,18.0
1935-08-11,17.0
1935-08-12,20.0
1935-08-13,16.0
1935-08-14,15.0
1935-08-15,14.0
1935-08-16,14.0
1935-08-17,14.0
1935-08-18,14.0
1935-08-19,12.0
1935-08-20,12.0
1935-08-21,11.0
1935-08-22,12.0
1935-08-23,13.0
1935-08-24,15.0
1935-08-25,30.0
1935-08-26,28.0
1935-08-27,26.0
1935-08-28,20.0
1935-08-29,18.0
1935-08-30,17.0
1935-08-31,17.0
1935-09-01,22.0
1935-09-02,19.0
1935-09-03,17.0
1935-09-04,15.0
1935-09-05,14.0
1935-09-06,13.0
1935-09-07,19.0
1935-09-08,25.0
1935-09-09,21.0
1935-09-10,19.0
1935-09-11,17.0
1935-09-12,16.0
1935-09-13,15.0
1935-09-14,14.0
1935-09-15,13.0
1935-09-16,13.0
1935-09-17,12.0
1935-09-18,11.0
1935-09-19,9.8
1935-09-20,9.8
1935-09-21,9.5
1935-09-22,9.2
1935-09-23,9.2
1935-09-24,8.6
1935-09-25,12.0
1935-09-26,14.0
1935-09-27,15.0
1935-09-28,14.0
1935-09-29,16.0
1935-09-30,15.0
1935-10-01,14.0
1935-10-02,13.0
1935-10-03,13.0
1935-10-04,12.0
1935-10-05,12.0
1935-10-06,11.0
1935-10-07,10.0
1935-10-08,5.1
1935-10-09,1.5
1935-10-10,18.0
1935-10-11,14.0
1935-10-12,8.6
1935-10-13,7.9
1935-10-14,6.7
1935-10-15,7.9
1935-10-16,7.3
1935-10-17,7.3
1935-10-18,6.2
1935-10-19,6.8
1935-10-20,7.3
1935-10-21,6.8
1935-10-22,6.2
1935-10-23,6.2
1935-10-24,6.8
1935-10-25,6.2
1935-10-26,6.8
1935-10-27,6.8
1935-10-28,6.2
1935-10-29,6.2
1935-10-30,5.7
1935-10-31,5.7
1935-11-01,5.7
1935-11-02,5.9
1935-11-03,5.7
1935-11-04,5.7
1935-11-05,5.9
1935-11-06,5.4
1935-11-07,5.1
1935-11-08,5.1
1935-11-09,4.9
1935-11-10,4.9
1935-11-11,4.6
1935-11-12,4.6
1935-11-13,0.8
1935-11-14,0.8
1935-11-15,0.8
1935-11-16,0.8
1935-11-17,0.8
1935-11-18,5.2
1935-11-19,0.8
1935-11-20,0.8
1935-11-21,0.8
1935-11-22,0.8
1935-11-23,0.8
1935-11-24,0.8
1935-11-25,0.8
1935-11-26,0.8
1935-11-27,0.8
1935-11-28,0.8
1935-11-29,0.8
1935-11-30,0.8
1935-12-01,0.8
1935-12-02,0.8
1935-12-03,0.8
1935-12-04,0.8
1935-12-05,0.8
1935-12-06,0.8
1935-12-07,0.8
1935-12-08,0.8
1935-12-09,0.8
1935-12-10,0.8
1935-12-11,0.8
1935-12-12,9.0
1935-12-13,16.0
1935-12-14,6.7
1935-12-15,4.4
1935-12-16,2.9
1935-12-17,3.1
1935-12-18,2.4
1935-12-19,2.0
1935-12-20,2.2
1935-12-21,2.8
1935-12-22,2.6
1935-12-23,2.5
1935-12-24,2.6
1935-12-25,2.8
1935-12-26,2.5
1935-12-27,2.4
1935-12-28,0.0
1935-12-29,0.0
1935-12-30,0.0
1935-12-31,0.0
1936-01-01,0.49
1936-01-02,0.19
1936-01-03,0.19
1936-01-04,0.32
1936-01-05,0.32
1936-01-06,0.32
1936-01-07,0.6900000000000001
1936-01-08,0.6900000000000001
1936-01-09,0.23
1936-01-10,0.32
1936-01-11,0.6900000000000001
1936-01-12,0.49
1936-01-13,0.43
1936-01-14,0.49
1936-01-15,0.49
1936-01-16,0.37
1936-01-17,15.0
1936-01-18,32.0
1936-01-19,30.0
1936-01-20,27.0
1936-01-21,9.9
1936-01-22,2.7
1936-01-23,2.8
1936-01-24,2.8
1936-01-25,3.2
1936-01-26,2.9
1936-01-27,2.6
1936-01-28,2.9
1936-01-29,1.3
1936-01-30,0.37
1936-01-31,2.8
1936-02-01,3.7
1936-02-02,2.4
1936-02-03,2.2
1936-02-04,1.9
1936-02-05,2.1
1936-02-06,2.6
1936-02-07,2.8
1936-02-08,3.0
1936-02-09,2.9
1936-02-10,2.8
1936-02-11,2.9
1936-02-12,3.1
1936-02-13,2.9
1936-02-14,2.9
1936-02-15,3.1
1936-02-16,2.9
1936-02-17,2.8
1936-02-18,2.9
1936-02-19,2.8
1936-02-20,2.5
1936-02-21,2.4
1936-02-22,2.6
1936-02-23,2.5
1936-02-24,2.3
1936-02-25,2.5
1936-02-26,2.6
1936-02-27,2.3
1936-02-28,2.3
1936-02-29,2.5
1936-03-01,2.3
1936-03-02,2.1
1936-03-03,2.2
1936-03-04,2.5
1936-03-05,2.1
1936-03-06,1.9
1936-03-07,2.1
1936-03-08,1.9
1936-03-09,1.5
1936-03-10,1.8
1936-03-11,2.1
1936-03-12,2.0
1936-03-13,2.0
1936-03-14,2.4
1936-03-15,2.2
1936-03-16,2.0
1936-03-17,2.2
1936-03-18,2.4
1936-03-19,1.9
1936-03-20,1.8
1936-03-21,2.3
1936-03-22,2.0
1936-03-23,1.6
1936-03-24,1.7000000000000002
1936-03-25,2.1
1936-03-26,2.0
1936-03-27,1.8
1936-03-28,2.0
1936-03-29,1.9
1936-03-30,1.8
1936-03-31,2.0
1936-04-01,2.0
1936-04-02,1.7000000000000002
1936-04-03,1.8
1936-04-04,1.9
1936-04-05,1.8
1936-04-06,2.0
1936-04-07,2.0
1936-04-08,2.2
1936-04-09,2.1
1936-04-10,1.8
1936-04-11,2.2
1936-04-12,2.3
1936-04-13,2.9
1936-04-14,3.6
1936-04-15,4.3
1936-04-16,6.1
1936-04-17,9.8
1936-04-18,13.0
1936-04-19,16.0
1936-04-20,18.0
1936-04-21,22.0
1936-04-22,14.0
1936-04-23,12.0
1936-04-24,84.0
1936-04-25,53.0
1936-04-26,49.0
1936-04-27,56.0
1936-04-28,54.0
1936-04-29,53.0
1936-04-30,42.0
1936-05-01,41.0
1936-05-02,44.0
1936-05-03,72.0
1936-05-04,114.0
1936-05-05,145.0
1936-05-06,137.0
1936-05-07,84.0
1936-05-08,60.0
1936-05-09,47.0
1936-05-10,40.0
1936-05-11,45.0
1936-05-12,68.0
1936-05-13,114.0
1936-05-14,145.0
1936-05-15,187.0
1936-05-16,202.0
1936-05-17,173.0
1936-05-18,178.0
1936-05-19,205.0
1936-05-20,157.0
1936-05-21,220.0
1936-05-22,235.0
1936-05-23,186.0
1936-05-24,186.0
1936-05-25,240.0
1936-05-26,264.0
1936-05-27,227.0
1936-05-28,194.0
1936-05-29,215.0
1936-05-30,242.0
1936-05-31,226.0
1936-06-01,208.0
1936-06-02,140.0
1936-06-03,98.0
1936-06-04,79.0
1936-06-05,68.0
1936-06-06,63.0
1936-06-07,90.0
1936-06-08,153.0
1936-06-09,179.0
1936-06-10,192.0
1936-06-11,183.0
1936-06-12,176.0
1936-06-13,187.0
1936-06-14,174.0
1936-06-15,155.0
1936-06-16,159.0
1936-06-17,152.0
1936-06-18,151.0
1936-06-19,141.0
1936-06-20,120.0
1936-06-21,109.0
1936-06-22,124.0
1936-06-23,119.0
1936-06-24,101.0
1936-06-25,90.0
1936-06-26,96.0
1936-06-27,121.0
1936-06-28,134.0
1936-06-29,105.0
1936-06-30,88.0
1936-07-01,72.0
1936-07-02,63.0
1936-07-03,60.0
1936-07-04,54.0
1936-07-05,52.0
1936-07-06,52.0
1936-07-07,46.0
1936-07-08,50.0
1936-07-09,45.0
1936-07-10,43.0
1936-07-11,57.0
1936-07-12,58.0
1936-07-13,49.0
1936-07-14,45.0
1936-07-15,46.0
1936-07-16,47.0
1936-07-17,48.0
1936-07-18,45.0
1936-07-19,48.0
1936-07-20,47.0
1936-07-21,42.0
1936-07-22,37.0
1936-07-23,33.0
1936-07-24,30.0
1936-07-25,28.0
1936-07-26,26.0
1936-07-27,26.0
1936-07-28,30.0
1936-07-29,36.0
1936-07-30,44.0
1936-07-31,58.0
1936-08-01,68.0
1936-08-02,61.0
1936-08-03,56.0
1936-08-04,54.0
1936-08-05,49.0
1936-08-06,59.0
1936-08-07,52.0
1936-08-08,47.0
1936-08-09,47.0
1936-08-10,44.0
1936-08-11,40.0
1936-08-12,37.0
1936-08-13,32.0
1936-08-14,30.0
1936-08-15,30.0
1936-08-16,27.0
1936-08-17,26.0
1936-08-18,26.0
1936-08-19,25.0
1936-08-20,30.0
1936-08-21,32.0
1936-08-22,26.0
1936-08-23,17.0
1936-08-24,0.0
1936-08-25,0.0
1936-08-26,0.0
1936-08-27,0.0
1936-08-28,0.0
1936-08-29,0.0
1936-08-30,0.0
1936-08-31,0.0
1936-09-01,0.0
1936-09-02,0.0
1936-09-03,0.0
1936-09-04,0.0
1936-09-05,0.0
1936-09-06,0.0
1936-09-07,0.0
1936-09-08,0.0
1936-09-09,0.0
1936-09-10,0.0
1936-09-11,0.0
1936-09-12,0.0
1936-09-13,0.0
1936-09-14,0.0
1936-09-15,0.0
1936-09-16,0.0
1936-09-17,0.0
1936-09-18,0.0
1936-09-19,0.0
1936-09-20,0.0
1936-09-21,0.0
1936-09-22,0.0
1936-09-23,0.0
1936-09-24,0.0
1936-09-25,0.0
1936-09-26,0.0
1936-09-27,0.0
1936-09-28,0.0
1936-09-29,0.0
1936-09-30,0.0
1936-10-01,
1936-10-02,
1936-10-03,
1936-10-04,
1936-10-05,
1936-10-06,
1936-10-07,
1936-10-08,
1936-10-09,
1936-10-10,
1936-10-11,
1936-10-12,
1936-10-13,
1936-10-14,
1936-10-15,
1936-10-16,
1936-10-17,
1936-10-18,
1936-10-19,
1936-10-20,
1936-10-21,
1936-10-22,
1936-10-23,
1936-10-24,
1936-10-25,
1936-10-26,
1936-10-27,
1936-10-28,
1936-10-29,
1936-10-30,
1936-10-31,
1936-11-01,
1936-11-02,
1936-11-03,
1936-11-04,
1936-11-05,
1936-11-06,
1936-11-07,
1936-11-08,
1936-11-09,
1936-11-10,
1936-11-11,
1936-11-12,
1936-11-13,
1936-11-14,
1936-11-15,
1936-11-16,
1936-11-17,
1936-11-18,
1936-11-19,
1936-11-20,
1936-11-21,
1936-11-22,
1936-11-23,
1936-11-24,
1936-11-25,
1936-11-26,
1936-11-27,
1936-11-28,
1936-11-29,
1936-11-30,
1936-12-01,
1936-12-02,
1936-12-03,
1936-12-04,
1936-12-05,
1936-12-06,
1936-12-07,
1936-12-08,
1936-12-09,
1936-12-10,
1936-12-11,
1936-12-12,
1936-12-13,
1936-12-14,
1936-12-15,
1936-12-16,
1936-12-17,
1936-12-18,
1936-12-19,
1936-12-20,
1936-12-21,
1936-12-22,
1936-12-23,
1936-12-24,
1936-12-25,
1936-12-26,
1936-12-27,
1936-12-28,
1936-12-29,
1936-12-30,
1936-12-31,
1937-01-01,0.0
1937-01-02,0.0
1937-01-03,0.49
1937-01-04,0.49
1937-01-05,0.49
1937-01-06,0.49
1937-01-07,0.49
1937-01-08,0.49
1937-01-09,0.49
1937-01-10,0.49
1937-01-11,0.49
1937-01-12,0.49
1937-01-13,0.49
1937-01-14,0.43
1937-01-15,0.43
1937-01-16,0.43
1937-01-17,0.43
1937-01-18,0.43
1937-01-19,0.43
1937-01-20,0.43
1937-01-21,0.43
1937-01-22,0.43
1937-01-23,0.49
1937-01-24,0.55
1937-01-25,0.32
1937-01-26,0.49
1937-01-27,0.97
1937-01-28,1.9
1937-01-29,3.1
1937-01-30,3.4
1937-01-31,3.4
1937-02-01,3.0
1937-02-02,3.3
1937-02-03,3.2
1937-02-04,2.8
1937-02-05,2.8
1937-02-06,3.3
1937-02-07,3.0
1937-02-08,2.4
1937-02-09,2.5
1937-02-10,2.5
1937-02-11,2.5
1937-02-12,2.4
1937-02-13,3.0
1937-02-14,3.2
1937-02-15,2.9
1937-02-16,3.1
1937-02-17,3.1
1937-02-18,2.4
1937-02-19,2.3
1937-02-20,2.3
1937-02-21,2.0
1937-02-22,1.7000000000000002
1937-02-23,1.8
1937-02-24,1.7000000000000002
1937-02-25,1.6
1937-02-26,1.8
1937-02-27,2.3
1937-02-28,2.1
1937-03-01,1.9
1937-03-02,2.0
1937-03-03,2.0
1937-03-04,1.4
1937-03-05,1.7000000000000002
1937-03-06,2.0
1937-03-07,1.9
1937-03-08,2.0
1937-03-09,2.0
1937-03-10,2.0
1937-03-11,1.7000000000000002
1937-03-12,1.7000000000000002
1937-03-13,2.3
1937-03-14,2.6
1937-03-15,2.5
1937-03-16,2.8
1937-03-17,2.9
1937-03-18,2.5
1937-03-19,2.6
1937-03-20,3.0
1937-03-21,2.6
1937-03-22,2.3
1937-03-23,2.4
1937-03-24,2.6
1937-03-25,2.4
1937-03-26,2.5
1937-03-27,2.8
1937-03-28,2.6
1937-03-29,2.0
1937-03-30,2.3
1937-03-31,2.8
1937-04-01,2.5
1937-04-02,2.6
1937-04-03,3.1
1937-04-04,2.9
1937-04-05,2.6
1937-04-06,2.6
1937-04-07,2.6
1937-04-08,2.5
1937-04-09,2.4
1937-04-10,2.6
1937-04-11,2.5
1937-04-12,2.1
1937-04-13,2.3
1937-04-14,2.9
1937-04-15,3.0
1937-04-16,4.0
1937-04-17,5.2
1937-04-18,4.0
1937-04-19,4.2
1937-04-20,4.7
1937-04-21,5.1
1937-04-22,6.3
1937-04-23,5.7
1937-04-24,5.2
1937-04-25,4.6
1937-04-26,4.0
1937-04-27,1.4
1937-04-28,2.4
1937-04-29,7.8
1937-04-30,3.3
1937-05-01,15.0
1937-05-02,9.0
1937-05-03,12.0
1937-05-04,17.0
1937-05-05,26.0
1937-05-06,56.0
1937-05-07,80.0
1937-05-08,79.0
1937-05-09,115.0
1937-05-10,158.0
1937-05-11,150.0
1937-05-12,131.0
1937-05-13,183.0
1937-05-14,255.0
1937-05-15,286.0
1937-05-16,288.0
1937-05-17,288.0
1937-05-18,346.0
1937-05-19,355.0
1937-05-20,287.0
1937-05-21,287.0
1937-05-22,323.0
1937-05-23,340.0
1937-05-24,260.0
1937-05-25,236.0
1937-05-26,180.0
1937-05-27,218.0
1937-05-28,300.0
1937-05-29,288.0
1937-05-30,260.0
1937-05-31,217.0
1937-06-01,173.0
1937-06-02,176.0
1937-06-03,171.0
1937-06-04,146.0
1937-06-05,124.0
1937-06-06,107.0
1937-06-07,94.0
1937-06-08,91.0
1937-06-09,99.0
1937-06-10,98.0
1937-06-11,148.0
1937-06-12,201.0
1937-06-13,206.0
1937-06-14,207.0
1937-06-15,210.0
1937-06-16,257.0
1937-06-17,322.0
1937-06-18,344.0
1937-06-19,330.0
1937-06-20,291.0
1937-06-21,338.0
1937-06-22,340.0
1937-06-23,296.0
1937-06-24,241.0
1937-06-25,241.0
1937-06-26,285.0
1937-06-27,223.0
1937-06-28,196.0
1937-06-29,186.0
1937-06-30,170.0
1937-07-01,172.0
1937-07-02,157.0
1937-07-03,131.0
1937-07-04,120.0
1937-07-05,122.0
1937-07-06,110.0
1937-07-07,99.0
1937-07-08,98.0
1937-07-09,91.0
1937-07-10,81.0
1937-07-11,85.0
1937-07-12,116.0
1937-07-13,112.0
1937-07-14,110.0
1937-07-15,90.0
1937-07-16,78.0
1937-07-17,68.0
1937-07-18,79.0
1937-07-19,65.0
1937-07-20,54.0
1937-07-21,48.0
1937-07-22,42.0
1937-07-23,38.0
1937-07-24,35.0
1937-07-25,33.0
1937-07-26,35.0
1937-07-27,44.0
1937-07-28,56.0
1937-07-29,83.0
1937-07-30,67.0
1937-07-31,54.0
1937-08-01,47.0
1937-08-02,41.0
1937-08-03,38.0
1937-08-04,32.0
1937-08-05,28.0
1937-08-06,29.0
1937-08-07,25.0
1937-08-08,22.0
1937-08-09,20.0
1937-08-10,18.0
1937-08-11,16.0
1937-08-12,15.0
1937-08-13,16.0
1937-08-14,14.0
1937-08-15,13.0
1937-08-16,13.0
1937-08-17,15.0
1937-08-18,18.0
1937-08-19,17.0
1937-08-20,13.0
1937-08-21,11.0
1937-08-22,9.8
1937-08-23,9.2
1937-08-24,8.9
1937-08-25,9.2
1937-08-26,9.2
1937-08-27,8.6
1937-08-28,8.9
1937-08-29,12.0
1937-08-30,21.0
1937-08-31,16.0
1937-09-01,13.0
1937-09-02,16.0
1937-09-03,42.0
1937-09-04,30.0
1937-09-05,27.0
1937-09-06,30.0
1937-09-07,26.0
1937-09-08,21.0
1937-09-09,18.0
1937-09-10,15.0
1937-09-11,10.0
1937-09-12,9.5
1937-09-13,8.6
1937-09-14,8.2
1937-09-15,7.6
1937-09-16,7.3
1937-09-17,7.3
1937-09-18,7.0
1937-09-19,7.0
1937-09-20,5.0
1937-09-21,0.0
1937-09-22,0.0
1937-09-23,0.0
1937-09-24,0.0
1937-09-25,0.0
1937-09-26,0.0
1937-09-27,0.0
1937-09-28,0.0
1937-09-29,0.0
1937-09-30,0.0
1937-10-01,0.0
1937-10-02,0.0
1937-10-03,0.0
1937-10-04,0.0
1937-10-05,0.0
1937-10-06,0.0
1937-10-07,0.0
1937-10-08,0.0
1937-10-09,1.3
1937-10-10,4.2
1937-10-11,4.4
1937-10-12,4.4
1937-10-13,4.4
1937-10-14,4.2
1937-10-15,4.6
1937-10-16,5.4
1937-10-17,5.4
1937-10-18,5.4
1937-10-19,5.1
1937-10-20,5.7
1937-10-21,5.7
1937-10-22,5.4
1937-10-23,5.4
1937-10-24,5.7
1937-10-25,5.9
1937-10-26,5.7
1937-10-27,5.7
1937-10-28,5.9
1937-10-29,6.2
1937-10-30,6.5
1937-10-31,6.5
1937-11-01,6.2
1937-11-02,5.7
1937-11-03,5.4
1937-11-04,5.4
1937-11-05,4.6
1937-11-06,4.4
1937-11-07,5.4
1937-11-08,5.4
1937-11-09,4.9
1937-11-10,5.1
1937-11-11,4.9
1937-11-12,4.6
1937-11-13,3.8
1937-11-14,3.8
1937-11-15,3.9
1937-11-16,3.9
1937-11-17,4.2
1937-11-18,4.0
1937-11-19,4.0
1937-11-20,4.2
1937-11-21,4.0
1937-11-22,3.9
1937-11-23,3.9
1937-11-24,4.2
1937-11-25,3.8
1937-11-26,3.7
1937-11-27,3.8
1937-11-28,3.3
1937-11-29,3.2
1937-11-30,3.7
1937-12-01,3.4
1937-12-02,3.0
1937-12-03,3.4
1937-12-04,3.6
1937-12-05,3.2
1937-12-06,2.8
1937-12-07,3.1
1937-12-08,3.6
1937-12-09,3.1
1937-12-10,3.0
1937-12-11,3.6
1937-12-12,3.4
1937-12-13,3.0
1937-12-14,3.0
1937-12-15,3.6
1937-12-16,3.0
1937-12-17,2.9
1937-12-18,3.7
1937-12-19,3.2
1937-12-20,2.9
1937-12-21,3.1
1937-12-22,3.2
1937-12-23,3.0
1937-12-24,3.2
1937-12-25,3.7
1937-12-26,3.2
1937-12-27,2.8
1937-12-28,2.8
1937-12-29,2.9
1937-12-30,2.8
1937-12-31,2.8
1938-01-01,2.8
1938-01-02,2.6
1938-01-03,2.1
1938-01-04,2.6
1938-01-05,2.9
1938-01-06,2.5
1938-01-07,2.5
1938-01-08,2.6
1938-01-09,2.5
1938-01-10,2.2
1938-01-11,2.5
1938-01-12,2.6
1938-01-13,2.2
1938-01-14,2.2
1938-01-15,2.6
1938-01-16,2.5
1938-01-17,2.2
1938-01-18,2.6
1938-01-19,2.8
1938-01-20,2.4
1938-01-21,2.6
1938-01-22,2.8
1938-01-23,2.5
1938-01-24,2.4
1938-01-25,2.8
1938-01-26,2.6
1938-01-27,2.2
1938-01-28,2.3
1938-01-29,2.9
1938-01-30,2.8
1938-01-31,2.2
1938-02-01,2.2
1938-02-02,2.4
1938-02-03,2.2
1938-02-04,2.2
1938-02-05,2.9
1938-02-06,2.6
1938-02-07,2.0
1938-02-08,2.3
1938-02-09,2.5
1938-02-10,2.1
1938-02-11,2.1
1938-02-12,2.6
1938-02-13,2.2
1938-02-14,1.8
1938-02-15,2.1
1938-02-16,2.5
1938-02-17,2.2
1938-02-18,2.3
1938-02-19,2.6
1938-02-20,1.8
1938-02-21,1.8
1938-02-22,2.0
1938-02-23,2.3
1938-02-24,1.9
1938-02-25,1.9
1938-02-26,2.2
1938-02-27,2.0
1938-02-28,1.7000000000000002
1938-03-01,1.9
1938-03-02,2.2
1938-03-03,2.1
1938-03-04,2.4
1938-03-05,2.8
1938-03-06,2.4
1938-03-07,1.8
1938-03-08,1.9
1938-03-09,2.2
1938-03-10,2.0
1938-03-11,1.9
1938-03-12,2.4
1938-03-13,2.3
1938-03-14,2.0
1938-03-15,2.1
1938-03-16,2.0
1938-03-17,1.8
1938-03-18,2.0
1938-03-19,2.6
1938-03-20,2.2
1938-03-21,2.0
1938-03-22,2.0
1938-03-23,2.2
1938-03-24,1.9
1938-03-25,1.8
1938-03-26,2.2
1938-03-27,2.2
1938-03-28,1.9
1938-03-29,2.0
1938-03-30,2.4
1938-03-31,2.0
1938-04-01,1.9
1938-04-02,2.4
1938-04-03,2.0
1938-04-04,1.7000000000000002
1938-04-05,1.8
1938-04-06,2.0
1938-04-07,1.8
1938-04-08,1.8
1938-04-09,2.0
1938-04-10,2.0
1938-04-11,1.8
1938-04-12,1.8
1938-04-13,2.4
1938-04-14,2.5
1938-04-15,3.0
1938-04-16,3.2
1938-04-17,2.8
1938-04-18,2.8
1938-04-19,9.3
1938-04-20,14.0
1938-04-21,14.0
1938-04-22,15.0
1938-04-23,14.0
1938-04-24,12.0
1938-04-25,11.0
1938-04-26,10.0
1938-04-27,11.0
1938-04-28,10.0
1938-04-29,8.0
1938-04-30,16.0
1938-05-01,16.0
1938-05-02,16.0
1938-05-03,22.0
1938-05-04,17.0
1938-05-05,12.0
1938-05-06,11.0
1938-05-07,9.8
1938-05-08,8.2
1938-05-09,7.0
1938-05-10,7.0
1938-05-11,7.0
1938-05-12,7.3
1938-05-13,8.2
1938-05-14,17.0
1938-05-15,26.0
1938-05-16,39.0
1938-05-17,41.0
1938-05-18,27.0
1938-05-19,23.0
1938-05-20,76.0
1938-05-21,73.0
1938-05-22,87.0
1938-05-23,67.0
1938-05-24,81.0
1938-05-25,99.0
1938-05-26,119.0
1938-05-27,187.0
1938-05-28,292.0
1938-05-29,364.0
1938-05-30,387.0
1938-05-31,386.0
1938-06-01,407.0
1938-06-02,423.0
1938-06-03,446.0
1938-06-04,453.0
1938-06-05,453.0
1938-06-06,452.0
1938-06-07,448.0
1938-06-08,445.0
1938-06-09,439.0
1938-06-10,438.0
1938-06-11,422.0
1938-06-12,418.0
1938-06-13,431.0
1938-06-14,419.0
1938-06-15,406.0
1938-06-16,410.0
1938-06-17,419.0
1938-06-18,424.0
1938-06-19,448.0
1938-06-20,438.0
1938-06-21,446.0
1938-06-22,445.0
1938-06-23,442.0
1938-06-24,404.0
1938-06-25,301.0
1938-06-26,251.0
1938-06-27,238.0
1938-06-28,216.0
1938-06-29,305.0
1938-06-30,264.0
1938-07-01,213.0
1938-07-02,223.0
1938-07-03,203.0
1938-07-04,266.0
1938-07-05,336.0
1938-07-06,295.0
1938-07-07,257.0
1938-07-08,248.0
1938-07-09,241.0
1938-07-10,231.0
1938-07-11,212.0
1938-07-12,205.0
1938-07-13,211.0
1938-07-14,197.0
1938-07-15,202.0
1938-07-16,176.0
1938-07-17,153.0
1938-07-18,142.0
1938-07-19,128.0
1938-07-20,120.0
1938-07-21,105.0
1938-07-22,94.0
1938-07-23,86.0
1938-07-24,77.0
1938-07-25,75.0
1938-07-26,82.0
1938-07-27,94.0
1938-07-28,98.0
1938-07-29,93.0
1938-07-30,79.0
1938-07-31,69.0
1938-08-01,65.0
1938-08-02,65.0
1938-08-03,65.0
1938-08-04,56.0
1938-08-05,49.0
1938-08-06,48.0
1938-08-07,61.0
1938-08-08,53.0
1938-08-09,49.0
1938-08-10,52.0
1938-08-11,49.0
1938-08-12,51.0
1938-08-13,56.0
1938-08-14,54.0
1938-08-15,46.0
1938-08-16,38.0
1938-08-17,34.0
1938-08-18,33.0
1938-08-19,27.0
1938-08-20,24.0
1938-08-21,22.0
1938-08-22,20.0
1938-08-23,21.0
1938-08-24,27.0
1938-08-25,23.0
1938-08-26,21.0
1938-08-27,26.0
1938-08-28,25.0
1938-08-29,31.0
1938-08-30,26.0
1938-08-31,26.0
1938-09-01,65.0
1938-09-02,61.0
1938-09-03,60.0
1938-09-04,60.0
1938-09-05,59.0
1938-09-06,59.0
1938-09-07,56.0
1938-09-08,60.0
1938-09-09,48.0
1938-09-10,41.0
1938-09-11,57.0
1938-09-12,69.0
1938-09-13,69.0
1938-09-14,60.0
1938-09-15,50.0
1938-09-16,38.0
1938-09-17,45.0
1938-09-18,35.0
1938-09-19,30.0
1938-09-20,28.0
1938-09-21,28.0
1938-09-22,27.0
1938-09-23,27.0
1938-09-24,25.0
1938-09-25,24.0
1938-09-26,21.0
1938-09-27,20.0
1938-09-28,9.8
1938-09-29,2.3
1938-09-30,2.1
1938-10-01,1.9
1938-10-02,1.9
1938-10-03,18.0
1938-10-04,58.0
1938-10-05,2.3
1938-10-06,2.1
1938-10-07,1.9
1938-10-08,1.5
1938-10-09,1.1
1938-10-10,52.0
1938-10-11,43.0
1938-10-12,3.7
1938-10-13,1.5
1938-10-14,1.5
1938-10-15,1.5
1938-10-16,32.0
1938-10-17,18.0
1938-10-18,1.7000000000000002
1938-10-19,2.1
1938-10-20,1.9
1938-10-21,1.9
1938-10-22,29.0
1938-10-23,47.0
1938-10-24,5.7
1938-10-25,1.7000000000000002
1938-10-26,1.5
1938-10-27,1.5
1938-10-28,1.5
1938-10-29,1.5
1938-10-30,1.7000000000000002
1938-10-31,1.5
1938-11-01,1.5
1938-11-02,1.5
1938-11-03,1.5
1938-11-04,1.4
1938-11-05,1.4
1938-11-06,3.7
1938-11-07,94.0
1938-11-08,12.0
1938-11-09,1.9
1938-11-10,1.7000000000000002
1938-11-11,1.2
1938-11-12,0.9
1938-11-13,2.4
1938-11-14,2.4
1938-11-15,2.3
1938-11-16,1.9
1938-11-17,1.7000000000000002
1938-11-18,1.7000000000000002
1938-11-19,1.7000000000000002
1938-11-20,1.7000000000000002
1938-11-21,1.5
1938-11-22,1.5
1938-11-23,1.4
1938-11-24,1.5
1938-11-25,1.5
1938-11-26,1.9
1938-11-27,5.1
1938-11-28,8.2
1938-11-29,11.0
1938-11-30,9.8
1938-12-01,8.9
1938-12-02,9.2
1938-12-03,9.2
1938-12-04,9.5
1938-12-05,9.8
1938-12-06,9.5
1938-12-07,9.2
1938-12-08,9.2
1938-12-09,8.6
1938-12-10,9.8
1938-12-11,11.0
1938-12-12,9.8
1938-12-13,9.5
1938-12-14,8.6
1938-12-15,8.2
1938-12-16,8.6
1938-12-17,8.9
1938-12-18,9.2
1938-12-19,9.2
1938-12-20,8.9
1938-12-21,9.2
1938-12-22,9.2
1938-12-23,9.2
1938-12-24,7.3
1938-12-25,5.9
1938-12-26,6.5
1938-12-27,5.9
1938-12-28,5.7
1938-12-29,5.7
1938-12-30,5.7
1938-12-31,5.9
1939-01-01,6.8
1939-01-02,6.5
1939-01-03,6.5
1939-01-04,6.8
1939-01-05,6.5
1939-01-06,6.2
1939-01-07,6.2
1939-01-08,6.8
1939-01-09,7.0
1939-01-10,6.5
1939-01-11,6.5
1939-01-12,6.5
1939-01-13,6.8
1939-01-14,6.8
1939-01-15,6.8
1939-01-16,6.5
1939-01-17,6.5
1939-01-18,6.5
1939-01-19,6.2
1939-01-20,6.2
1939-01-21,5.9
1939-01-22,5.7
1939-01-23,6.5
1939-01-24,6.5
1939-01-25,6.2
1939-01-26,5.9
1939-01-27,5.7
1939-01-28,5.7
1939-01-29,5.9
1939-01-30,5.9
1939-01-31,5.9
1939-02-01,6.2
1939-02-02,5.7
1939-02-03,5.7
1939-02-04,5.1
1939-02-05,5.1
1939-02-06,4.6
1939-02-07,4.9
1939-02-08,4.6
1939-02-09,5.1
1939-02-10,48.0
1939-02-11,80.0
1939-02-12,58.0
1939-02-13,25.0
1939-02-14,5.0
1939-02-15,0.0
1939-02-16,0.0
1939-02-17,0.0
1939-02-18,0.0
1939-02-19,0.0
1939-02-20,0.0
1939-02-21,0.0
1939-02-22,0.0
1939-02-23,0.0
1939-02-24,0.0
1939-02-25,0.0
1939-02-26,0.0
1939-02-27,0.0
1939-02-28,0.0
1939-03-01,0.0
1939-03-02,0.0
1939-03-03,0.0
1939-03-04,0.0
1939-03-05,0.0
1939-03-06,0.0
1939-03-07,0.0
1939-03-08,0.0
1939-03-09,0.0
1939-03-10,0.0
1939-03-11,0.0
1939-03-12,0.0
1939-03-13,0.0
1939-03-14,0.0
1939-03-15,0.0
1939-03-16,0.0
1939-03-17,0.0
1939-03-18,0.0
1939-03-19,0.0
1939-03-20,0.0
1939-03-21,0.0
1939-03-22,0.0
1939-03-23,0.0
1939-03-24,0.0
1939-03-25,0.0
1939-03-26,0.0
1939-03-27,0.0
1939-03-28,0.0
1939-03-29,0.0
1939-03-30,0.0
1939-03-31,0.0
1939-04-01,0.0
1939-04-02,0.0
1939-04-03,0.0
1939-04-04,0.0
1939-04-05,0.0
1939-04-06,0.0
1939-04-07,0.0
1939-04-08,0.0
1939-04-09,0.0
1939-04-10,0.0
1939-04-11,0.0
1939-04-12,0.0
1939-04-13,0.0
1939-04-14,0.0
1939-04-15,0.0
1939-04-16,0.0
1939-04-17,0.0
1939-04-18,0.0
1939-04-19,0.0
1939-04-20,0.0
1939-04-21,0.0
1939-04-22,0.0
1939-04-23,0.0
1939-04-24,0.0
1939-04-25,0.0
1939-04-26,0.0
1939-04-27,0.0
1939-04-28,0.0
1939-04-29,3.2
1939-04-30,20.0
1939-05-01,37.0
1939-05-02,49.0
1939-05-03,65.0
1939-05-04,101.0
1939-05-05,144.0
1939-05-06,201.0
1939-05-07,171.0
1939-05-08,120.0
1939-05-09,132.0
1939-05-10,196.0
1939-05-11,229.0
1939-05-12,209.0
1939-05-13,192.0
1939-05-14,243.0
1939-05-15,300.0
1939-05-16,263.0
1939-05-17,243.0
1939-05-18,269.0
1939-05-19,349.0
1939-05-20,383.0
1939-05-21,391.0
1939-05-22,394.0
1939-05-23,402.0
1939-05-24,355.0
1939-05-25,277.0
1939-05-26,218.0
1939-05-27,214.0
1939-05-28,280.0
1939-05-29,374.0
1939-05-30,406.0
1939-05-31,406.0
1939-06-01,404.0
1939-06-02,312.0
1939-06-03,299.0
1939-06-04,368.0
1939-06-05,404.0
1939-06-06,396.0
1939-06-07,328.0
1939-06-08,280.0
1939-06-09,144.0
1939-06-10,382.0
1939-06-11,301.0
1939-06-12,269.0
1939-06-13,361.0
1939-06-14,382.0
1939-06-15,364.0
1939-06-16,305.0
1939-06-17,144.0
1939-06-18,243.0
1939-06-19,243.0
1939-06-20,131.0
1939-06-21,121.0
1939-06-22,135.0
1939-06-23,164.0
1939-06-24,162.0
1939-06-25,155.0
1939-06-26,148.0
1939-06-27,148.0
1939-06-28,148.0
1939-06-29,137.0
1939-06-30,132.0
1939-07-01,124.0
1939-07-02,121.0
1939-07-03,114.0
1939-07-04,110.0
1939-07-05,104.0
1939-07-06,104.0
1939-07-07,95.0
1939-07-08,89.0
1939-07-09,86.0
1939-07-10,79.0
1939-07-11,75.0
1939-07-12,69.0
1939-07-13,63.0